Archiv

Tageswerte

Alle gespeicherten Messwerte deiner Wetterstation.

Ausgewählter Tag22.11.2023
← Vortag Nächster Tag → Heute
Messpunkte287
Max Temperatur0,1 °C
Min Temperatur-1,9 °C
Ø Temperatur-1,2 °C
Regen0,0 mm
Stärkste Böe15,8 km/h

Messwerte vom 22.11.2023

287 gespeicherte Messwerte

Diagramm anzeigen
ZeitTemperaturFeuchteDruckWindBöeRichtungRegenUVHelligkeit
23:590,1 °C82 %1.014,9 hPa6,5 km/h15,8 km/h264°0,0 mm
23:540,1 °C83 %1.014,9 hPa7,3 km/h12,2 km/h253°0,0 mm
23:490,0 °C83 %1.014,9 hPa5,4 km/h9,7 km/h213°0,0 mm
23:440,0 °C83 %1.014,9 hPa5,0 km/h11,1 km/h249°0,0 mm
23:390,0 °C83 %1.014,9 hPa5,6 km/h11,1 km/h255°0,0 mm
23:340,0 °C84 %1.014,9 hPa5,6 km/h11,1 km/h274°0,0 mm
23:29-0,1 °C84 %1.015,9 hPa6,8 km/h11,4 km/h245°0,0 mm
23:24-0,1 °C84 %1.015,9 hPa5,3 km/h9,7 km/h225°0,0 mm
23:19-0,1 °C84 %1.015,9 hPa4,5 km/h10,3 km/h223°0,0 mm
23:14-0,1 °C84 %1.015,9 hPa4,1 km/h8,5 km/h255°0,0 mm
23:09-0,2 °C84 %1.015,9 hPa5,4 km/h9,3 km/h255°0,0 mm
23:04-0,2 °C85 %1.015,9 hPa5,0 km/h9,7 km/h260°0,0 mm
22:59-0,3 °C85 %1.015,9 hPa5,2 km/h12,2 km/h221°0,0 mm
22:54-0,3 °C85 %1.015,9 hPa5,1 km/h11,1 km/h234°0,0 mm
22:49-0,3 °C86 %1.015,9 hPa3,6 km/h8,5 km/h232°0,0 mm
22:44-0,4 °C85 %1.015,9 hPa5,6 km/h11,1 km/h255°0,0 mm
22:39-0,4 °C86 %1.015,9 hPa3,5 km/h8,5 km/h242°0,0 mm
22:34-0,4 °C86 %1.015,9 hPa2,9 km/h6,8 km/h231°0,0 mm
22:29-0,5 °C86 %1.015,9 hPa2,6 km/h9,3 km/h310°0,0 mm
22:24-0,5 °C87 %1.015,9 hPa5,0 km/h8,9 km/h260°0,0 mm
22:19-0,5 °C87 %1.015,9 hPa3,2 km/h12,2 km/h239°0,0 mm
22:14-0,6 °C87 %1.015,9 hPa4,4 km/h9,3 km/h254°0,0 mm
22:09-0,6 °C87 %1.015,9 hPa3,5 km/h7,4 km/h221°0,0 mm
22:04-0,6 °C87 %1.015,9 hPa4,0 km/h8,5 km/h241°0,0 mm
21:59-0,7 °C87 %1.015,9 hPa5,6 km/h8,5 km/h243°0,0 mm
21:54-0,7 °C88 %1.015,9 hPa3,5 km/h8,5 km/h205°0,0 mm
21:49-0,8 °C88 %1.015,9 hPa4,4 km/h8,5 km/h250°0,0 mm
21:44-0,9 °C89 %1.016,9 hPa3,9 km/h11,1 km/h248°0,0 mm
21:39-1,0 °C89 %1.016,9 hPa4,4 km/h8,5 km/h220°0,0 mm
21:34-1,0 °C89 %1.016,9 hPa2,1 km/h7,1 km/h218°0,0 mm
21:29-1,0 °C89 %1.016,9 hPa2,9 km/h7,9 km/h235°0,0 mm
21:24-1,0 °C89 %1.016,9 hPa3,3 km/h7,9 km/h214°0,0 mm
21:19-1,0 °C90 %1.016,9 hPa2,8 km/h7,4 km/h209°0,0 mm
21:14-1,0 °C90 %1.016,9 hPa3,5 km/h9,3 km/h219°0,0 mm
21:09-1,0 °C89 %1.016,9 hPa1,5 km/h4,7 km/h212°0,0 mm
21:04-1,0 °C89 %1.016,9 hPa3,9 km/h9,7 km/h225°0,0 mm
20:59-1,0 °C89 %1.016,9 hPa2,9 km/h8,5 km/h250°0,0 mm
20:54-1,0 °C89 %1.016,9 hPa3,1 km/h7,9 km/h244°0,0 mm
20:49-1,0 °C89 %1.016,9 hPa4,9 km/h9,7 km/h234°0,0 mm
20:44-1,0 °C89 %1.016,9 hPa2,5 km/h6,8 km/h221°0,0 mm
20:39-1,0 °C90 %1.016,9 hPa2,1 km/h10,3 km/h249°0,0 mm
20:34-0,9 °C90 %1.016,9 hPa2,2 km/h5,3 km/h243°0,0 mm
20:29-0,9 °C90 %1.016,9 hPa3,9 km/h8,5 km/h242°0,0 mm
20:24-0,9 °C90 %1.016,9 hPa2,7 km/h6,4 km/h242°0,0 mm
20:19-1,0 °C90 %1.016,9 hPa2,3 km/h6,8 km/h251°0,0 mm
20:14-1,0 °C89 %1.016,9 hPa4,3 km/h8,5 km/h262°0,0 mm
20:09-1,0 °C90 %1.016,9 hPa2,0 km/h7,4 km/h240°0,0 mm
20:04-1,0 °C90 %1.016,9 hPa3,7 km/h8,5 km/h249°0,0 mm
19:59-1,0 °C90 %1.018,0 hPa3,5 km/h12,2 km/h263°0,0 mm
19:54-1,0 °C90 %1.018,0 hPa2,6 km/h6,8 km/h244°0,0 mm
19:49-1,0 °C89 %1.018,0 hPa3,5 km/h7,9 km/h243°0,0 mm
19:44-1,0 °C89 %1.018,0 hPa3,5 km/h8,5 km/h264°0,0 mm
19:39-1,0 °C90 %1.018,0 hPa1,5 km/h5,6 km/h214°0,0 mm
19:34-1,0 °C89 %1.018,0 hPa0,9 km/h3,5 km/h238°0,0 mm
19:29-1,0 °C89 %1.018,0 hPa1,6 km/h3,5 km/h289°0,0 mm
19:24-1,0 °C89 %1.018,0 hPa2,0 km/h4,7 km/h299°0,0 mm
19:19-1,0 °C89 %1.018,0 hPa2,3 km/h6,8 km/h292°0,0 mm
19:14-1,0 °C89 %1.019,0 hPa1,8 km/h6,4 km/h293°0,0 mm
19:09-1,1 °C89 %1.019,0 hPa2,1 km/h4,2 km/h287°0,0 mm
19:04-1,1 °C90 %1.019,0 hPa0,6 km/h3,9 km/h292°0,0 mm
18:59-1,1 °C89 %1.018,0 hPa1,8 km/h3,5 km/h301°0,0 mm
18:54-1,1 °C89 %1.018,0 hPa1,0 km/h6,4 km/h313°0,0 mm
18:49-1,1 °C89 %1.018,0 hPa1,9 km/h3,9 km/h295°0,0 mm
18:44-1,1 °C89 %1.019,0 hPa2,5 km/h8,9 km/h289°0,0 mm
18:39-1,1 °C89 %1.019,0 hPa3,2 km/h8,9 km/h285°0,0 mm
18:34-1,1 °C89 %1.019,0 hPa3,1 km/h7,4 km/h263°0,0 mm
18:29-1,1 °C89 %1.019,0 hPa1,8 km/h5,3 km/h279°0,0 mm
18:24-1,2 °C89 %1.019,0 hPa1,4 km/h6,4 km/h230°0,0 mm
18:19-1,2 °C88 %1.019,0 hPa3,4 km/h7,9 km/h250°0,0 mm
18:14-1,2 °C88 %1.019,0 hPa2,2 km/h8,5 km/h292°0,0 mm
18:09-1,2 °C88 %1.019,0 hPa2,5 km/h7,9 km/h294°0,0 mm
18:04-1,2 °C88 %1.019,0 hPa1,2 km/h3,2 km/h292°0,0 mm
17:59-1,3 °C88 %1.019,0 hPa2,7 km/h6,8 km/h299°0,0 mm
17:54-1,4 °C89 %1.019,0 hPa2,3 km/h3,5 km/h307°0,0 mm
17:49-1,4 °C89 %1.019,0 hPa1,4 km/h3,2 km/h324°0,0 mm
17:44-1,4 °C89 %1.019,0 hPa0,0 km/h0,0 km/h338°0,0 mm
17:39-1,4 °C89 %1.019,0 hPa0,1 km/h1,8 km/h338°0,0 mm
17:34-1,4 °C88 %1.019,0 hPa0,1 km/h1,8 km/h338°0,0 mm
17:29-1,3 °C88 %1.019,0 hPa0,3 km/h1,8 km/h338°0,0 mm
17:24-1,3 °C88 %1.019,0 hPa0,0 km/h0,0 km/h338°0,0 mm
17:19-1,3 °C88 %1.019,0 hPa0,4 km/h2,4 km/h338°0,0 mm
17:14-1,3 °C88 %1.019,0 hPa1,0 km/h3,2 km/h338°0,0 mm
17:09-1,3 °C88 %1.019,0 hPa0,8 km/h2,7 km/h338°0,0 mm
17:04-1,4 °C88 %1.019,0 hPa0,3 km/h2,1 km/h338°0,0 mm
16:59-1,4 °C88 %1.019,0 hPa0,7 km/h2,7 km/h338°0,0 mm
16:54-1,4 °C88 %1.019,0 hPa1,3 km/h3,5 km/h338°0,0 mm
16:49-1,3 °C88 %1.019,0 hPa1,4 km/h3,5 km/h338°0,0 mm
16:44-1,3 °C88 %1.019,0 hPa0,0 km/h0,0 km/h338°0,0 mm
16:39-1,3 °C88 %1.019,0 hPa0,1 km/h1,8 km/h338°0,0 mm
16:34-1,4 °C88 %1.019,0 hPa0,1 km/h1,8 km/h338°0,0 mm
16:29-1,4 °C87 %1.019,0 hPa0,5 km/h2,1 km/h338°0,0 mm
16:24-1,5 °C88 %1.019,0 hPa0,3 km/h2,4 km/h338°0,0 mm
16:19-1,5 °C87 %1.019,0 hPa0,0 km/h0,0 km/h338°0,0 mm
16:14-1,5 °C87 %1.018,0 hPa0,3 km/h2,4 km/h338°0,0 mm
16:09-1,6 °C87 %1.018,0 hPa0,6 km/h2,4 km/h338°0,0 mm
16:04-1,6 °C86 %1.018,0 hPa0,2 km/h2,4 km/h338°0,0 mm
15:59-1,5 °C87 %1.018,0 hPa0,7 km/h2,4 km/h338°0,0 mm
15:54-1,5 °C87 %1.018,0 hPa0,0 km/h0,0 km/h338°0,0 mm
15:49-1,5 °C87 %1.018,0 hPa0,0 km/h0,0 km/h338°0,0 mm
15:44-1,6 °C88 %1.019,0 hPa0,0 km/h0,0 km/h338°0,0 mm
15:39-1,7 °C88 %1.019,0 hPa0,0 km/h0,0 km/h338°0,0 mm
15:34-1,5 °C87 %1.019,0 hPa1,4 km/h2,7 km/h338°0,0 mm
15:29-1,5 °C87 %1.019,0 hPa0,0 km/h0,0 km/h338°0,0 mm
15:24-1,5 °C87 %1.019,0 hPa0,0 km/h0,0 km/h338°0,0 mm
15:19-1,4 °C88 %1.019,0 hPa0,0 km/h0,0 km/h338°0,0 mm
15:14-1,4 °C88 %1.019,0 hPa0,0 km/h0,0 km/h338°0,0 mm
15:09-1,4 °C87 %1.019,0 hPa0,2 km/h2,4 km/h338°0,0 mm
15:04-1,4 °C88 %1.019,0 hPa0,6 km/h2,1 km/h338°0,0 mm
14:59-1,4 °C87 %1.019,0 hPa0,5 km/h2,1 km/h338°0,0 mm
14:54-1,4 °C87 %1.019,0 hPa0,8 km/h3,5 km/h338°0,0 mm
14:49-1,4 °C87 %1.019,0 hPa0,2 km/h2,4 km/h338°0,0 mm
14:44-1,5 °C86 %1.018,0 hPa0,2 km/h2,1 km/h338°0,0 mm
14:39-1,5 °C87 %1.018,0 hPa0,2 km/h2,4 km/h338°0,0 mm
14:34-1,5 °C86 %1.018,0 hPa0,4 km/h2,1 km/h338°0,0 mm
14:29-1,5 °C87 %1.018,0 hPa0,1 km/h1,8 km/h338°0,0 mm
14:24-1,4 °C86 %1.018,0 hPa0,0 km/h0,0 km/h338°0,0 mm
14:19-1,4 °C86 %1.018,0 hPa0,0 km/h0,0 km/h338°0,0 mm
14:14-1,4 °C86 %1.019,0 hPa0,4 km/h2,1 km/h338°0,0 mm
14:09-1,4 °C86 %1.019,0 hPa0,0 km/h0,0 km/h338°0,0 mm
14:04-1,5 °C87 %1.019,0 hPa0,0 km/h0,0 km/h338°0,0 mm
13:59-1,5 °C87 %1.019,0 hPa0,1 km/h1,8 km/h338°0,0 mm
13:54-1,5 °C87 %1.019,0 hPa1,0 km/h3,9 km/h338°0,0 mm
13:49-1,5 °C86 %1.019,0 hPa0,5 km/h5,0 km/h338°0,0 mm
13:44-1,4 °C85 %1.019,0 hPa1,9 km/h4,2 km/h346°0,0 mm
13:39-1,3 °C86 %1.019,0 hPa0,5 km/h2,7 km/h338°0,0 mm
13:34-1,2 °C84 %1.019,0 hPa0,4 km/h2,1 km/h338°0,0 mm
13:29-1,2 °C85 %1.019,0 hPa0,0 km/h0,0 km/h338°0,0 mm
13:24-1,2 °C85 %1.019,0 hPa0,2 km/h1,8 km/h338°0,0 mm
13:19-1,1 °C86 %1.019,0 hPa0,7 km/h3,9 km/h338°0,0 mm
13:14-1,0 °C85 %1.019,0 hPa1,0 km/h3,2 km/h338°0,0 mm
13:09-0,9 °C86 %1.019,0 hPa0,6 km/h2,4 km/h338°0,0 mm
13:04-1,0 °C85 %1.019,0 hPa0,7 km/h3,2 km/h338°0,0 mm
12:59-1,0 °C84 %1.019,0 hPa0,0 km/h0,0 km/h338°0,0 mm
12:54-1,0 °C84 %1.019,0 hPa0,7 km/h5,6 km/h349°0,0 mm
12:49-1,0 °C82 %1.019,0 hPa0,1 km/h1,8 km/h22°0,0 mm
12:44-1,0 °C84 %1.019,0 hPa0,6 km/h2,7 km/h16°0,0 mm
12:39-0,9 °C84 %1.019,0 hPa0,7 km/h2,1 km/h22°0,0 mm
12:34-0,8 °C85 %1.019,0 hPa1,3 km/h4,2 km/h354°0,0 mm
12:29-0,8 °C87 %1.019,0 hPa0,5 km/h2,4 km/h338°0,0 mm
12:24-0,7 °C86 %1.019,0 hPa0,7 km/h2,4 km/h338°0,0 mm
12:19-0,9 °C86 %1.019,0 hPa0,3 km/h2,4 km/h315°0,0 mm
12:14-1,0 °C87 %1.019,0 hPa0,5 km/h2,7 km/h315°0,0 mm
12:09-1,0 °C87 %1.019,0 hPa1,2 km/h3,2 km/h315°0,0 mm
12:04-1,0 °C87 %1.019,0 hPa1,5 km/h4,2 km/h315°0,0 mm
11:59-1,0 °C87 %1.019,0 hPa1,8 km/h3,5 km/h315°0,0 mm
11:54-1,0 °C88 %1.019,0 hPa1,0 km/h5,3 km/h315°0,0 mm
11:49-1,1 °C87 %1.019,0 hPa0,9 km/h3,9 km/h263°0,0 mm
11:44-1,1 °C87 %1.019,0 hPa0,9 km/h2,4 km/h230°0,0 mm
11:39-1,1 °C87 %1.019,0 hPa0,8 km/h2,7 km/h112°0,0 mm
11:34-1,1 °C88 %1.019,0 hPa1,0 km/h4,2 km/h104°0,0 mm
11:29-1,1 °C89 %1.019,0 hPa1,4 km/h5,3 km/h350°0,0 mm
11:24-1,1 °C89 %1.019,0 hPa1,2 km/h3,5 km/h312°0,0 mm
11:19-1,1 °C89 %1.019,0 hPa1,1 km/h2,7 km/h332°0,0 mm
11:14-1,1 °C89 %1.019,0 hPa1,0 km/h4,2 km/h320°0,0 mm
11:09-1,2 °C90 %1.019,0 hPa0,8 km/h2,7 km/h338°0,0 mm
11:04-1,4 °C90 %1.019,0 hPa0,3 km/h2,4 km/h347°0,0 mm
10:59-1,4 °C90 %1.019,0 hPa0,6 km/h3,9 km/h240°0,0 mm
10:54-1,5 °C91 %1.019,0 hPa1,0 km/h3,9 km/h30°0,0 mm
10:49-1,5 °C91 %1.019,0 hPa0,9 km/h3,2 km/h295°0,0 mm
10:44-1,5 °C91 %1.019,0 hPa1,1 km/h4,7 km/h38°0,0 mm
10:39-1,5 °C92 %1.019,0 hPa0,7 km/h2,7 km/h323°0,0 mm
10:34-1,6 °C92 %1.019,0 hPa0,2 km/h2,4 km/h14°0,0 mm
10:29-1,6 °C92 %1.019,0 hPa0,2 km/h2,1 km/h292°0,0 mm
10:24-1,7 °C92 %1.019,0 hPa1,0 km/h2,7 km/h191°0,0 mm
10:19-1,7 °C92 %1.019,0 hPa1,1 km/h3,5 km/h340°0,0 mm
10:14-1,7 °C93 %1.019,0 hPa1,4 km/h5,0 km/h48°0,0 mm
10:09-1,7 °C93 %1.019,0 hPa1,0 km/h2,7 km/h307°0,0 mm
10:04-1,7 °C93 %1.019,0 hPa0,7 km/h2,7 km/h302°0,0 mm
09:59-1,8 °C93 %1.019,0 hPa1,0 km/h3,2 km/h292°0,0 mm
09:54-1,9 °C93 %1.019,0 hPa1,1 km/h2,7 km/h295°0,0 mm
09:49-1,9 °C93 %1.019,0 hPa1,5 km/h4,2 km/h305°0,0 mm
09:44-1,8 °C93 %1.019,0 hPa1,8 km/h6,4 km/h315°0,0 mm
09:39-1,9 °C93 %1.019,0 hPa1,0 km/h8,5 km/h320°0,0 mm
09:34-1,9 °C93 %1.019,0 hPa1,7 km/h8,5 km/h316°0,0 mm
09:29-1,8 °C93 %1.019,0 hPa2,0 km/h5,3 km/h306°0,0 mm
09:24-1,8 °C93 %1.019,0 hPa1,5 km/h5,3 km/h308°0,0 mm
09:19-1,8 °C93 %1.019,0 hPa1,3 km/h5,0 km/h293°0,0 mm
09:14-1,8 °C93 %1.019,0 hPa1,2 km/h4,2 km/h304°0,0 mm
09:09-1,8 °C94 %1.019,0 hPa1,4 km/h3,2 km/h297°0,0 mm
09:04-1,8 °C93 %1.019,0 hPa1,3 km/h3,5 km/h299°0,0 mm
08:59-1,8 °C93 %1.018,0 hPa1,7 km/h3,9 km/h310°0,0 mm
08:54-1,8 °C93 %1.018,0 hPa0,3 km/h2,4 km/h309°0,0 mm
08:49-1,8 °C93 %1.018,0 hPa1,7 km/h5,3 km/h322°0,0 mm
08:44-1,7 °C93 %1.018,0 hPa1,1 km/h3,9 km/h315°0,0 mm
08:39-1,7 °C93 %1.018,0 hPa1,8 km/h6,8 km/h299°0,0 mm
08:34-1,7 °C93 %1.018,0 hPa1,2 km/h3,5 km/h315°0,0 mm
08:29-1,6 °C93 %1.018,0 hPa1,0 km/h4,7 km/h308°0,0 mm
08:24-1,6 °C93 %1.018,0 hPa0,7 km/h2,7 km/h315°0,0 mm
08:19-1,6 °C93 %1.018,0 hPa1,2 km/h3,9 km/h308°0,0 mm
08:14-1,6 °C93 %1.018,0 hPa0,7 km/h3,5 km/h344°0,0 mm
08:09-1,6 °C93 %1.018,0 hPa1,7 km/h4,7 km/h317°0,0 mm
08:04-1,5 °C93 %1.018,0 hPa1,9 km/h5,6 km/h304°0,0 mm
07:59-1,4 °C92 %1.018,0 hPa1,1 km/h3,2 km/h292°0,0 mm
07:54-1,4 °C92 %1.018,0 hPa1,6 km/h3,2 km/h292°0,0 mm
07:49-1,4 °C92 %1.018,0 hPa0,2 km/h2,1 km/h248°0,0 mm
07:44-1,4 °C92 %1.016,9 hPa0,7 km/h2,7 km/h122°0,0 mm
07:39-1,4 °C91 %1.016,9 hPa1,2 km/h3,2 km/h199°0,0 mm
07:34-1,4 °C92 %1.016,9 hPa1,0 km/h2,4 km/h251°0,0 mm
07:29-1,4 °C91 %1.016,9 hPa0,9 km/h3,9 km/h291°0,0 mm
07:24-1,4 °C91 %1.016,9 hPa1,5 km/h4,2 km/h66°0,0 mm
07:19-1,4 °C91 %1.016,9 hPa1,2 km/h2,7 km/h309°0,0 mm
07:14-1,5 °C91 %1.016,9 hPa1,2 km/h2,7 km/h241°0,0 mm
07:09-1,5 °C92 %1.016,9 hPa0,8 km/h2,7 km/h308°0,0 mm
07:04-1,5 °C92 %1.016,9 hPa1,0 km/h3,9 km/h320°0,0 mm
06:59-1,4 °C91 %1.016,9 hPa2,0 km/h6,4 km/h74°0,0 mm
06:54-1,5 °C91 %1.016,9 hPa1,1 km/h5,0 km/h267°0,0 mm
06:49-1,5 °C91 %1.016,9 hPa3,2 km/h7,4 km/h70°0,0 mm
06:44-1,5 °C92 %1.016,9 hPa1,1 km/h3,9 km/h264°0,0 mm
06:39-1,5 °C92 %1.016,9 hPa0,9 km/h5,0 km/h209°0,0 mm
06:34-1,5 °C92 %1.016,9 hPa1,6 km/h5,3 km/h290°0,0 mm
06:29-1,5 °C92 %1.016,9 hPa1,3 km/h5,3 km/h327°0,0 mm
06:24-1,5 °C92 %1.016,9 hPa1,2 km/h3,2 km/h122°0,0 mm
06:19-1,4 °C92 %1.016,9 hPa2,4 km/h7,4 km/h272°0,0 mm
06:14-1,4 °C92 %1.016,9 hPa1,8 km/h6,8 km/h92°0,0 mm
06:09-1,4 °C92 %1.016,9 hPa2,0 km/h6,4 km/h115°0,0 mm
06:04-1,4 °C92 %1.016,9 hPa1,7 km/h5,6 km/h311°0,0 mm
05:59-1,4 °C92 %1.015,9 hPa2,0 km/h6,4 km/h305°0,0 mm
05:54-1,4 °C92 %1.015,9 hPa0,8 km/h3,5 km/h306°0,0 mm
05:49-1,4 °C92 %1.015,9 hPa1,6 km/h5,3 km/h308°0,0 mm
05:44-1,4 °C92 %1.015,9 hPa1,1 km/h2,7 km/h296°0,0 mm
05:39-1,4 °C93 %1.015,9 hPa1,9 km/h3,2 km/h289°0,0 mm
05:34-1,4 °C92 %1.015,9 hPa1,9 km/h4,7 km/h276°0,0 mm
05:29-1,4 °C93 %1.015,9 hPa2,3 km/h5,6 km/h308°0,0 mm
05:24-1,4 °C93 %1.015,9 hPa1,7 km/h8,5 km/h293°0,0 mm
05:19-1,4 °C93 %1.015,9 hPa2,0 km/h6,4 km/h311°0,0 mm
05:14-1,4 °C93 %1.015,9 hPa2,2 km/h6,8 km/h317°0,0 mm
05:09-1,4 °C93 %1.015,9 hPa1,9 km/h5,6 km/h291°0,0 mm
05:04-1,4 °C93 %1.015,9 hPa2,3 km/h5,6 km/h300°0,0 mm
04:59-1,4 °C93 %1.014,9 hPa2,0 km/h5,3 km/h305°0,0 mm
04:54-1,4 °C93 %1.014,9 hPa1,7 km/h3,9 km/h236°0,0 mm
04:49-1,4 °C93 %1.014,9 hPa1,9 km/h7,9 km/h293°0,0 mm
04:44-1,4 °C93 %1.014,9 hPa1,6 km/h3,9 km/h304°0,0 mm
04:39-1,4 °C93 %1.014,9 hPa0,5 km/h3,9 km/h315°0,0 mm
04:34-1,4 °C92 %1.014,9 hPa2,2 km/h7,9 km/h315°0,0 mm
04:29-1,3 °C92 %1.014,9 hPa1,3 km/h3,9 km/h322°0,0 mm
04:24-1,3 °C92 %1.014,9 hPa1,6 km/h3,2 km/h310°0,0 mm
04:19-1,3 °C92 %1.014,9 hPa1,9 km/h7,9 km/h315°0,0 mm
04:14-1,3 °C92 %1.014,9 hPa1,0 km/h2,7 km/h288°0,0 mm
04:09-1,3 °C92 %1.014,9 hPa0,8 km/h2,7 km/h312°0,0 mm
04:04-1,3 °C92 %1.014,9 hPa0,9 km/h2,7 km/h352°0,0 mm
03:59-1,3 °C92 %1.014,9 hPa1,9 km/h3,5 km/h298°0,0 mm
03:54-1,3 °C92 %1.014,9 hPa0,8 km/h3,2 km/h292°0,0 mm
03:49-1,3 °C92 %1.014,9 hPa1,6 km/h5,3 km/h324°0,0 mm
03:44-1,3 °C92 %1.013,9 hPa1,5 km/h7,9 km/h317°0,0 mm
03:39-1,3 °C92 %1.013,9 hPa1,0 km/h3,9 km/h323°0,0 mm
03:34-1,3 °C92 %1.013,9 hPa1,5 km/h2,7 km/h311°0,0 mm
03:29-1,3 °C92 %1.013,9 hPa1,9 km/h6,1 km/h320°0,0 mm
03:24-1,3 °C92 %1.013,9 hPa1,3 km/h4,7 km/h298°0,0 mm
03:19-1,3 °C93 %1.013,9 hPa1,7 km/h6,4 km/h301°0,0 mm
03:14-1,3 °C92 %1.013,9 hPa1,2 km/h3,9 km/h290°0,0 mm
03:03-1,2 °C92 %1.013,9 hPa2,8 km/h6,4 km/h301°0,0 mm
02:59-1,2 °C92 %1.013,9 hPa1,5 km/h3,9 km/h275°0,0 mm
02:54-1,1 °C92 %1.013,9 hPa1,8 km/h3,2 km/h17°0,0 mm
02:49-1,1 °C92 %1.013,9 hPa1,2 km/h3,9 km/h212°0,0 mm
02:44-1,1 °C92 %1.013,9 hPa1,9 km/h6,4 km/h317°0,0 mm
02:39-1,1 °C92 %1.013,9 hPa1,1 km/h3,5 km/h279°0,0 mm
02:34-1,1 °C92 %1.013,9 hPa1,0 km/h2,7 km/h325°0,0 mm
02:29-1,1 °C92 %1.013,9 hPa1,3 km/h3,2 km/h269°0,0 mm
02:24-1,0 °C92 %1.013,9 hPa0,7 km/h2,7 km/h333°0,0 mm
02:19-1,0 °C92 %1.013,9 hPa2,4 km/h6,8 km/h300°0,0 mm
02:14-1,0 °C92 %1.013,9 hPa3,0 km/h8,5 km/h320°0,0 mm
02:09-1,0 °C93 %1.013,9 hPa1,2 km/h2,7 km/h310°0,0 mm
02:04-1,0 °C93 %1.013,9 hPa1,5 km/h3,9 km/h307°0,0 mm
01:59-1,0 °C93 %1.013,9 hPa3,6 km/h9,3 km/h334°0,0 mm
01:54-1,0 °C93 %1.013,9 hPa2,1 km/h8,5 km/h317°0,0 mm
01:49-0,9 °C93 %1.013,9 hPa2,6 km/h8,5 km/h298°0,0 mm
01:44-0,9 °C93 %1.012,9 hPa2,5 km/h9,3 km/h312°0,0 mm
01:39-0,9 °C93 %1.012,9 hPa1,6 km/h3,2 km/h310°0,0 mm
01:34-0,9 °C93 %1.012,9 hPa2,1 km/h7,4 km/h285°0,0 mm
01:29-0,9 °C93 %1.012,9 hPa2,4 km/h9,3 km/h316°0,0 mm
01:24-0,9 °C93 %1.012,9 hPa2,7 km/h7,4 km/h289°0,0 mm
01:19-0,9 °C94 %1.012,9 hPa1,0 km/h2,7 km/h295°0,0 mm
01:14-0,9 °C93 %1.013,9 hPa1,6 km/h3,2 km/h306°0,0 mm
01:09-0,9 °C93 %1.013,9 hPa2,6 km/h6,4 km/h265°0,0 mm
01:04-0,8 °C93 %1.013,9 hPa3,9 km/h9,7 km/h323°0,0 mm
00:59-0,8 °C93 %1.012,9 hPa3,6 km/h11,4 km/h329°0,0 mm
00:54-0,8 °C93 %1.012,9 hPa2,5 km/h7,9 km/h298°0,0 mm
00:49-0,8 °C93 %1.012,9 hPa1,8 km/h5,6 km/h275°0,0 mm
00:44-0,9 °C93 %1.012,9 hPa1,8 km/h5,6 km/h322°0,0 mm
00:39-0,8 °C93 %1.012,9 hPa4,0 km/h10,3 km/h321°0,0 mm
00:34-0,8 °C93 %1.012,9 hPa3,3 km/h8,5 km/h316°0,0 mm
00:29-0,7 °C93 %1.012,9 hPa3,0 km/h8,5 km/h296°0,0 mm
00:24-0,6 °C93 %1.012,9 hPa3,7 km/h8,2 km/h324°0,0 mm
00:19-0,5 °C94 %1.012,9 hPa4,6 km/h10,8 km/h343°0,0 mm
00:14-0,5 °C94 %1.012,9 hPa2,3 km/h8,9 km/h310°0,0 mm
00:09-0,4 °C94 %1.012,9 hPa2,8 km/h9,3 km/h304°0,0 mm
00:04-0,3 °C94 %1.012,9 hPa3,2 km/h10,8 km/h328°0,0 mm